This demonstration page uses our WeatherBlox Daily Observations layout. Learn more.

Left ArrowRight Arrow

39.51506, -84.39828

Hourly Observations for April 28, 2016

Temp ( °F °C ) Dew Point ( °F °C ) Humidity (%) Winds ( mph kmh ) Pressure ( in mb ) Visibility ( mi km ) Precip ( " mm )
12:15 am 00:15 Cloudy with Rain 58 14.5 52 11 80 80 N N/A 29.83 1010 4 6 N/A
12:35 am 00:35 Cloudy with Rain 57 13.8 51 10.5 81 81 N N/A 29.88 1012 3 5 N/A
12:55 am 00:55 Cloudy with Rain 57 13.8 51 10.6 81 81 NNE 3 6 29.88 1012 3 5 N/A
1:15 am 01:15 Cloudy with Rain 57 13.8 51 10.6 81 81 N N/A 29.88 1012 3 5 N/A
1:35 am 01:35 Cloudy with Rain 57 13.8 51 10.6 81 81 N N/A 29.83 1010 3 4 N/A
1:55 am 01:55 Cloudy with Rain 57 13.8 51 10.7 82 82 NE 5 7 29.83 1010 3 4 N/A
2:15 am 02:15 Cloudy with Light Rain 57 13.8 51 10.8 82 82 NNE 5 7 29.83 1010 3 4 N/A
2:35 am 02:35 Cloudy with Drizzle 57 13.8 52 11 83 83 NE 6 9 29.80 1009 3 5 N/A
2:55 am 02:55 Cloudy with Light Rain 57 13.8 52 11 83 83 NE 5 7 29.80 1009 4 6 N/A
3:15 am 03:15 Cloudy with Haze 57 13.8 51 10.7 82 82 NE 6 9 29.80 1009 5 8 N/A
3:35 am 03:35 Cloudy with Haze 57 13.8 51 10.7 82 82 NNE 5 7 29.80 1009 5 8 N/A
3:55 am 03:55 Mostly Cloudy with Haze 57 13.8 51 10.6 81 81 NE 5 7 29.80 1009 5 8 N/A
4:15 am 04:15 Hazy 57 13.8 51 10.6 81 81 NE 7 11 29.80 1009 5 8 N/A
4:35 am 04:35 Hazy 57 13.8 51 10.6 81 81 NE 3 6 29.80 1009 4 6 N/A
4:55 am 04:55 Mostly Cloudy with Haze 57 13.8 51 10.7 82 82 N N/A 29.80 1009 4 6 N/A
5:15 am 05:15 Cloudy with Haze 57 13.8 51 10.8 82 82 N N/A 29.80 1009 4 6 N/A
5:35 am 05:35 Cloudy with Haze 57 13.8 52 11 83 83 N N/A 29.80 1009 3 5 N/A
5:55 am 05:55 Cloudy with Haze 57 13.8 52 11 83 83 NNE 3 6 29.80 1009 3 5 N/A
6:15 am 06:15 Cloudy with Haze 57 13.8 52 11 83 83 NNE 3 6 29.80 1009 4 6 N/A
6:35 am 06:35 Cloudy with Haze 57 13.8 52 10.9 83 83 NE 5 7 29.83 1010 4 6 N/A
6:55 am 06:55 Cloudy with Haze 57 13.8 51 10.7 82 82 E 6 9 29.83 1010 4 6 N/A
7:15 am 07:15 Cloudy with Haze 57 13.8 51 10.7 82 82 ENE 3 6 29.83 1010 3 5 N/A
7:35 am 07:35 Cloudy with Haze 57 13.8 51 10.6 81 81 ENE 7 11 29.83 1010 3 4 N/A
7:55 am 07:55 Cloudy with Haze 57 13.8 51 10.7 82 82 E 5 7 29.83 1010 2 3 N/A
8:15 am 08:15 Cloudy with Haze 57 13.8 51 10.7 82 82 ENE 5 7 29.83 1010 2 3 N/A
8:35 am 08:35 Cloudy with Haze 57 13.8 52 10.9 83 83 ENE 5 7 29.83 1010 2 2 N/A
8:55 am 08:55 Cloudy with Haze 57 14.1 52 11.2 83 83 E 5 7 29.83 1010 1 2 N/A
9:15 am 09:15 Cloudy with Haze 60 15.3 54 12.3 82 82 NE 6 9 29.83 1010 1 2 N/A
9:35 am 09:35 Cloudy with Haze 57 13.8 52 11 83 83 NNE 6 9 29.88 1012 1 2 N/A
9:55 am 09:55 Cloudy with Light Rain 57 13.8 52 11 83 83 NNE 10 17 29.88 1012 1 2 N/A
10:15 am 10:15 Cloudy with Rain 57 13.8 52 11 83 83 N 7 11 29.88 1012 1 2 N/A
10:35 am 10:35 Cloudy with Haze 57 13.8 52 11 83 83 NE 7 11 29.83 1010 2 3 N/A
10:55 am 10:55 Cloudy with Haze 57 13.8 52 10.9 83 83 NE 7 11 29.83 1010 3 4 N/A
11:15 am 11:15 Cloudy with Haze 57 13.8 51 10.5 81 81 ENE 5 7 29.83 1010 3 5 N/A
11:35 am 11:35 Cloudy with Haze 58 14.3 52 11 81 81 N N/A 29.83 1010 3 5 N/A
11:55 am 11:55 Cloudy with Haze 60 15.3 54 12 81 81 ESE 3 6 29.83 1010 3 5 N/A
12:15 pm 12:15 Cloudy with Haze 60 15.3 53 11.8 80 80 E 3 6 29.83 1010 3 5 N/A
12:35 pm 12:35 Cloudy with Haze 61 16 55 12.5 80 80 N N/A 29.83 1010 3 5 N/A
12:55 pm 12:55 Cloudy with Haze 61 16.2 55 12.5 79 79 N N/A 29.83 1010 3 5 N/A
1:15 pm 13:15 Cloudy with Haze 62 16.6 55 13 79 79 N 3 6 29.83 1010 3 5 N/A
1:35 pm 13:35 Cloudy with Haze 62 16.6 55 13 79 79 N 3 6 29.83 1010 3 5 N/A
1:55 pm 13:55 Cloudy with Haze 63 17 56 13.3 79 79 N N/A 29.83 1010 3 5 N/A
2:15 pm 14:15 Cloudy with Haze 68 20 60 15.7 76 76 N N/A 29.83 1010 4 6 N/A
2:35 pm 14:35 Cloudy with Haze 69 20.8 61 15.9 74 74 N N/A 29.83 1010 5 8 N/A
2:55 pm 14:55 Cloudy 69 20.8 60 15.3 71 71 undefined N/A 29.83 1010 7 11 N/A
3:15 pm 15:15 Mostly Cloudy 74 23.2 61 16.2 65 65 N N/A 29.83 1010 10 16 N/A
3:35 pm 15:35 Mostly Cloudy 74 23.6 60 15.5 61 61 WSW 5 7 29.83 1010 10 16 N/A
3:55 pm 15:55 Partly Cloudy 74 23.6 56 13.6 54 54 SSW 5 7 29.83 1010 10 16 N/A
4:15 pm 16:15 Partly Cloudy 74 23.6 58 14.7 58 58 undefined N/A 29.80 1009 10 16 N/A
4:35 pm 16:35 Partly Cloudy 74 23.6 58 14.7 58 58 N N/A 29.80 1009 10 16 N/A
4:55 pm 16:55 Partly Cloudy 74 23.6 56 13.5 53 53 N N/A 29.80 1009 10 16 N/A
5:15 pm 17:15 Partly Cloudy 76 24.5 57 13.7 51 51 undefined N/A 29.80 1009 10 16 N/A
5:35 pm 17:35 Partly Cloudy 76 24.6 57 13.7 51 51 N N/A 29.80 1009 10 16 N/A
5:55 pm 17:55 Partly Cloudy 74 23.6 55 12.8 51 51 SW 10 17 29.80 1009 10 16 N/A
6:15 pm 18:15 Mostly Cloudy 74 23.6 53 11.5 47 47 NW 12 19 29.83 1010 10 16 N/A
6:35 pm 18:35 Partly Cloudy 74 23.6 56 13.6 54 54 N 10 17 29.83 1010 10 16 N/A
6:55 pm 18:55 Partly Cloudy 70 21 56 13.1 61 61 N 13 20 29.83 1010 10 16 N/A
7:15 pm 19:15 Sunny 69 20.8 56 13.6 64 64 NNE 8 13 29.83 1010 10 16 N/A
7:35 pm 19:35 Partly Cloudy 69 20.8 58 14.6 68 68 NNE 9 15 29.85 1011 10 16 N/A
7:55 pm 19:55 Mostly Cloudy 67 19.5 58 14.2 72 72 NNE 9 15 29.85 1011 7 11 N/A
8:15 pm 20:15 Cloudy 67 19.5 58 14.2 72 72 NNE 5 7 29.88 1012 7 11 N/A
8:35 pm 20:35 Cloudy 64 18 56 13.1 73 73 N 8 13 29.88 1012 7 11 N/A
8:55 pm 20:55 Partly Cloudy 63 17.3 55 13 76 76 NNE 7 11 29.88 1012 7 11 N/A
9:15 pm 21:15 Partly Cloudy 62 16.6 55 12.6 77 77 N 8 13 29.91 1013 7 11 N/A
9:35 pm 21:35 Partly Cloudy 61 16 53 11.8 76 76 NNE 7 11 29.91 1013 7 11 N/A
9:55 pm 21:55 Clear 60 15.3 53 11.5 78 78 N 9 15 29.91 1013 7 11 N/A
10:15 pm 22:15 Hazy 60 15.3 53 11.5 78 78 N 7 11 29.91 1013 5 8 N/A
10:35 pm 22:35 Mostly Cloudy 60 15.3 53 11.5 78 78 N 6 9 29.94 1014 7 11 N/A
10:55 pm 22:55 Cloudy with Haze 60 15.3 53 11.5 78 78 NNE 6 9 29.94 1014 5 8 N/A
11:15 pm 23:15 Cloudy with Haze 57 14 51 10.4 79 79 NE 7 11 29.97 1015 5 8 N/A
11:35 pm 23:35 Cloudy with Haze 57 13.8 51 10.3 80 80 N 6 9 29.97 1015 4 6 N/A
11:55 pm 23:55 Cloudy with Haze 57 13.8 51 10.5 81 81 N 6 9 29.97 1015 4 6 N/A

Powered by AerisWeather